DateTimeUTC,F1_A11,F1_S11,BsB_S11,BsG_S11,BsR_S11,BbsB_S11,BbsG_S11,BbsR_S11,BaB_A11,BaG_A11,BaR_A11,Tu_S11,T_S11,Uu_S11,U_S11,P_S11,T1_A11
2021-05-19T03:00:00Z,00000200,21000000,,,,,,,0000.04,-000.21,-000.08,16.2,23.4,00.9,00.6,0678.9,30.8
2021-05-19T03:01:00Z,00000200,21000000,,,,,,,-000.28,-000.03,-000.05,16.2,23.5,00.9,00.6,0678.9,30.9
2021-05-19T03:02:00Z,00000200,21000000,,,,,,,0000.14,0000.17,-000.32,16.3,23.5,00.9,00.6,0678.9,30.9
2021-05-19T03:03:00Z,00000200,61000000,,,,,,,-000.03,-000.52,0000.33,16.3,23.5,00.9,00.6,0678.9,30.9
2021-05-19T03:04:00Z,00000200,41000000,-000.05,0000.18,-000.20,0000.08,0000.05,0000.34,0000.29,0000.49,0000.23,16.6,23.4,00.9,00.6,0679.8,30.9
2021-05-19T03:05:00Z,00000200,01000000,0000.00,-000.21,-000.04,-000.05,0000.01,0000.15,-000.08,-000.19,-000.07,16.7,23.3,00.9,00.6,0679.9,30.9
2021-05-19T03:06:00Z,00000200,01000000,0000.19,0000.36,0000.04,0000.59,0000.18,0000.10,0000.10,0000.45,0000.19,16.7,23.3,01.0,00.7,0679.9,30.9
2021-05-19T03:07:00Z,00000200,01000000,0000.07,0000.19,0000.08,0000.25,0000.09,0000.41,0000.08,0000.23,-000.26,16.7,23.3,01.1,00.7,0679.9,30.8
2021-05-19T03:08:00Z,00000200,01000000,0000.06,0000.25,0000.07,0000.15,0000.04,0000.32,-000.10,-000.49,0000.11,16.6,23.3,01.0,00.7,0679.9,30.8
2021-05-19T03:09:00Z,00000200,01000000,0000.24,-000.02,0000.24,-000.14,-000.04,0000.10,0000.30,0000.27,0000.34,16.6,23.3,01.1,00.7,0679.9,30.8
2021-05-19T03:10:00Z,00000200,01000000,-000.07,0000.03,0000.05,0000.26,-000.00,0000.14,-000.18,0000.15,-000.01,16.6,23.3,01.1,00.7,0679.9,30.8
2021-05-19T03:11:00Z,00000200,01000000,0000.07,0000.65,0000.08,-000.29,0000.15,-000.13,0000.24,-000.16,-000.18,16.6,23.2,01.0,00.7,0679.9,30.8
2021-05-19T03:12:00Z,00000200,01000000,-000.01,0000.28,-000.14,-000.35,0000.15,0000.04,-000.09,-000.37,-000.05,16.6,23.2,01.1,00.7,0679.8,30.8
2021-05-19T03:13:00Z,00000200,01000000,-000.01,0000.37,-000.02,0000.15,0000.08,0000.36,-000.24,0000.22,-000.11,16.6,23.2,00.9,00.6,0679.8,30.8
2021-05-19T03:14:00Z,00000200,01000000,0000.08,0000.21,0000.11,-000.35,0000.26,0000.04,-000.01,0000.10,-000.09,16.6,23.2,01.0,00.6,0679.8,30.8
2021-05-19T03:15:00Z,00000200,01000000,-000.45,0000.01,0000.06,0000.20,-000.02,0000.20,-000.22,-000.40,-000.21,16.6,23.2,00.8,00.5,0679.8,30.8
2021-05-19T03:16:00Z,00000200,01000000,0000.18,0000.32,-000.11,0000.08,0000.14,-000.06,-000.13,-000.38,-000.27,16.6,23.2,00.8,00.6,0679.8,30.8
2021-05-19T03:17:00Z,00000200,01000000,0000.90,0000.44,0000.19,0000.29,-000.09,0000.18,0000.36,0000.38,0000.20,16.6,23.2,00.7,00.5,0679.8,30.8
2021-05-19T03:18:00Z,00000200,01000000,-000.47,0000.23,0000.11,-000.27,0000.01,0000.22,-000.14,0000.06,-000.35,16.6,23.2,00.8,00.5,0679.8,30.8
2021-05-19T03:19:00Z,00000200,01000000,0000.51,0000.01,-000.04,0000.38,-000.01,-000.18,-000.07,0000.11,0000.49,16.6,23.2,00.6,00.4,0679.8,30.8
2021-05-19T03:20:00Z,00000200,01000000,0000.21,0000.44,0000.38,-000.09,0000.15,0000.23,-000.02,-000.12,-000.14,16.6,23.2,00.7,00.5,0679.8,30.8
2021-05-19T03:21:00Z,00000200,01000000,0000.07,0000.19,0000.35,0000.12,-000.05,0000.17,-000.18,0000.25,-000.42,16.6,23.2,00.7,00.5,0679.8,30.8
2021-05-19T03:22:00Z,00000200,01000000,0000.14,0000.06,-000.20,0000.65,-000.01,0000.16,0000.10,-000.30,0000.28,16.6,23.2,00.6,00.4,0679.8,30.8
2021-05-19T03:23:00Z,00000200,01000000,-000.06,-000.02,-000.05,0000.95,0000.08,0000.11,0000.08,0000.23,0000.44,16.6,23.2,00.6,00.4,0679.8,30.8
2021-05-19T03:24:00Z,00000200,01000000,0000.37,0000.38,0000.15,0000.38,-000.12,0000.17,0000.18,-000.26,-000.44,16.5,23.2,00.6,00.4,0679.8,30.8
2021-05-19T03:25:00Z,00000200,01000000,0000.19,0000.25,0000.34,0000.53,0000.07,0000.12,-000.20,-000.07,0000.05,16.5,23.2,00.7,00.5,0679.8,30.8
2021-05-19T03:26:00Z,00000200,01000000,0000.04,0000.18,-000.16,0000.42,-000.07,0000.12,0000.14,0000.17,0000.17,16.5,23.1,00.7,00.4,0679.8,30.8
2021-05-19T03:27:00Z,00000200,01000000,0000.12,0000.22,0000.38,0000.03,-000.02,0000.34,0000.11,0000.10,0000.15,16.5,23.1,00.7,00.4,0679.8,30.8
2021-05-19T03:28:00Z,00000200,01000000,0000.51,0000.20,-000.01,-000.26,-000.17,0000.06,-000.07,-000.15,0000.17,16.5,23.1,00.8,00.5,0679.8,30.8
2021-05-19T03:29:00Z,00000200,01000000,0000.78,0000.23,0000.12,0000.52,0000.16,0000.46,-000.02,0000.19,-000.04,16.5,23.1,00.8,00.5,0679.8,30.8
2021-05-19T03:30:00Z,00000200,01000000,0000.40,-000.09,0000.05,-000.36,-000.05,0000.19,0000.10,-000.05,-000.31,16.5,23.1,00.7,00.5,0679.7,30.8
2021-05-19T03:31:00Z,00000200,01000000,0000.14,0000.09,0000.06,0000.37,0000.04,0000.10,-000.08,0000.31,0000.01,16.5,23.1,00.6,00.4,0679.7,30.8
2021-05-19T03:32:00Z,00000200,01000000,0000.67,0000.24,-000.04,0000.13,0000.20,0000.29,0000.15,-000.68,-000.12,16.5,23.1,00.6,00.4,0679.7,30.8
2021-05-19T03:33:00Z,00000200,01000000,0000.70,0000.33,0000.16,0000.59,0000.16,0000.21,-000.37,0000.38,0000.19,16.5,23.1,00.7,00.4,0679.7,30.8
2021-05-19T03:34:00Z,00000200,01000000,0000.12,0000.25,0000.39,0000.49,-000.31,0000.06,0000.37,0000.19,-000.05,16.5,23.1,00.6,00.4,0679.7,30.8
2021-05-19T03:35:00Z,00000200,01000000,0000.11,0000.04,0000.01,0000.16,0000.05,0000.13,-000.21,-000.39,-000.00,16.5,23.1,00.5,00.3,0679.7,30.8
2021-05-19T03:36:00Z,00000200,01000000,-000.12,0000.18,0000.08,0000.27,0000.16,0000.11,-000.28,-000.40,-000.29,16.5,23.1,00.6,00.4,0679.6,30.8
2021-05-19T03:37:00Z,00000200,01000000,-000.14,0000.24,-000.07,0000.64,0000.08,0000.01,0000.10,0000.13,-000.12,16.4,23.1,00.5,00.3,0679.7,30.8
2021-05-19T03:38:00Z,00000200,01000000,0000.36,0000.40,-000.08,-000.05,0000.21,0000.15,-000.32,-000.04,0000.17,16.4,23.0,00.3,00.2,0679.6,30.8
2021-05-19T03:39:00Z,00000200,01000000,0000.73,0000.14,0000.15,-000.36,-000.01,0000.11,0000.02,-000.13,-000.14,16.4,23.0,00.4,00.2,0679.6,30.8
2021-05-19T03:40:00Z,00000200,01000000,-000.00,0000.26,0000.01,-000.10,-000.00,0000.19,0000.02,-000.07,-000.19,16.4,23.0,00.3,00.2,0679.6,30.8
2021-05-19T03:41:00Z,00000200,01000000,0000.05,0000.26,-000.21,0000.00,-000.01,0000.05,-000.13,0000.23,0000.11,16.4,23.0,00.4,00.3,0679.6,30.8
2021-05-19T03:42:00Z,00000200,01000000,-000.01,0000.26,0000.10,-000.49,0000.04,0000.15,0000.45,-000.24,-000.29,16.4,23.0,00.3,00.2,0679.6,30.8
2021-05-19T03:43:00Z,00000200,01000000,0000.43,0000.13,-000.03,-000.10,0000.12,-000.05,-000.44,-000.28,0000.04,16.4,23.0,00.3,00.2,0679.6,30.8
2021-05-19T03:44:00Z,00000200,01000000,0000.76,0000.03,0000.17,0000.14,-000.02,0000.45,-000.04,-000.14,-000.42,16.4,23.0,00.3,00.2,0679.6,30.8
2021-05-19T03:45:00Z,00000200,01000000,0000.20,0000.01,0000.17,0000.21,-000.11,0000.31,0000.12,0000.25,0000.44,16.4,23.0,00.3,00.2,0679.6,30.8
2021-05-19T03:46:00Z,00000200,01000000,-000.01,0000.26,-000.05,0000.01,0000.25,-000.11,-000.20,0000.15,0000.18,16.5,23.1,00.2,00.2,0679.6,30.8
2021-05-19T03:47:00Z,00000200,01000000,0000.44,0000.21,0000.06,0000.47,-000.02,0000.26,0000.25,-000.43,-000.20,16.5,23.1,00.2,00.1,0679.6,30.9
2021-05-19T03:48:00Z,00000200,01000000,0000.17,0000.21,-000.16,-000.16,0000.41,0000.00,-000.37,0000.18,-000.28,16.6,23.1,00.2,00.2,0679.5,30.9
2021-05-19T03:49:00Z,00000200,01010000,-000.16,0000.11,0000.09,-000.04,0000.04,0000.06,-000.30,-000.34,-000.14,16.6,23.2,00.1,00.1,0679.5,30.8
2021-05-19T03:50:00Z,00000200,01000000,0000.12,0000.08,0000.05,0000.19,-000.12,0000.09,0000.41,0000.19,0000.18,16.5,23.1,00.1,00.1,0679.5,30.8
2021-05-19T03:51:00Z,00000200,01000000,0000.47,0000.16,0000.26,0000.29,0000.12,0000.20,-000.02,0000.04,0000.01,16.5,23.1,00.2,00.1,0679.5,30.8
2021-05-19T03:52:00Z,00000200,01000000,0000.17,0000.16,-000.08,-000.02,0000.03,-000.06,0000.04,-000.15,-000.09,16.5,23.1,00.1,00.1,0679.5,30.8
2021-05-19T03:53:00Z,00000200,01000000,0000.77,0000.13,-000.01,0000.10,-000.13,0000.15,0000.11,0000.46,-000.09,16.5,23.1,00.1,00.1,0679.5,30.8
2021-05-19T03:54:00Z,00000200,01000000,0000.15,0000.25,-000.19,-000.05,0000.06,-000.05,-000.04,-000.12,0000.48,16.5,23.1,00.2,00.1,0679.5,30.8
2021-05-19T03:55:00Z,00000200,01000000,0000.56,0000.30,0000.05,0000.09,0000.24,0000.20,-000.19,0000.14,0000.14,16.5,23.1,00.2,00.1,0679.5,30.8
2021-05-19T03:56:00Z,00000200,01000000,0000.09,0000.20,-000.06,-000.05,-000.06,-000.06,0000.34,0000.07,-000.01,16.4,23.0,00.2,00.1,0679.5,30.8
2021-05-19T03:57:00Z,00000200,41000000,,,,,,,0000.29,0000.54,0000.24,16.4,23.1,00.3,00.2,0679.6,30.8
2021-05-19T03:58:00Z,00000200,61000000,,,,,,,-000.20,-000.11,-000.09,16.1,23.2,00.4,00.2,0678.4,30.8
2021-05-19T03:59:00Z,00000200,21000000,,,,,,,0000.03,-000.21,0000.12,16.1,23.3,00.3,00.2,0678.4,30.8
